Location: Passau
(48.5830°N, 13.4830°E)
Time: 23:46:46
(UTC+01:00)

UKube-1 - Visible Passes

Search period start: 01 December 2021 00:00
Search period end: 11 December 2021 00:00
Orbit: 612 x 617 km, 98.4° (Epoch: 01 December)

Date Brightness Start Highest point End Pass type
(mag) Time Alt. Az. Time Alt. Az. Time Alt. Az.
04 Dec ? 06:29:50 10° E 06:31:36 12° NE 06:33:22 10° NNE visible
05 Dec ? 06:44:12 10° E 06:46:54 16° ENE 06:49:36 10° NNE visible
06 Dec ? 06:58:56 10° ESE 07:02:14 22° ENE 07:05:32 10° NNE visible
10 Dec ? 06:27:21 10° ENE 06:28:39 11° NE 06:29:59 10° NE visible
